Terminal Aerodrome Forecast
Issued by NWS

Home | Current Version | Previous Version | Text Only | Print | Product List | Glossary On
Versions: 1 2 3 4 5 6 7 8 9 10 11 12 13 14 15 16 17 18 19 20 21 22 23 24 25 26 27 28 29 30
000
FTUS43 KDLH 151100
TAFHIB
TAF
KHIB 151134Z 1512/1612 30005KT P6SM SCT060
      TEMPO 1512/1513 4SM BR
     FM151300 33010KT P6SM SCT060
     FM152000 30012KT P6SM SCT060
     FM160000 28004KT P6SM FEW060=

USA.gov is the U.S. government's official web portal to all federal, state and local government web resources and services.